User: anonymous
Location: Caltech
(34.1382°N, 118.1253°W)
Time: 15:31:32
(UTC-07:00)
Language:

Iridium 65 - Orbit

View from above orbital plane
View from above orbital plane
View from above satellite
View from above satellite

Ground track
Ground track

The orbit data is extracted from the following two-line orbital elements,

1 25288U 98021D   14209.41256292  .00000355  00000-0  11985-3 0  8485
2 25288 086.3981 304.7535 0002410 114.2847 297.6989 14.34217583853838
Epoch (UTC): 28 July 2014 09:54:05
Eccentricity: 0.0002410
inclination: 86.3981°
perigee height: 776 km
apogee height: 779 km
right ascension of ascending node: 304.7535°
argument of perigee: 114.2847°
revolutions per day: 14.34217583
mean anomaly at epoch: 297.6989°
orbit number at epoch: 85383

The dashed part of the orbit path shows where the satellite is in the earth's shadow,  

DLR